INMARSAT 5-F4           
1 42698U 17025A   19258.11483995  .00000065  00000-0  00000+0 0  9999
2 42698   0.0255 170.3397 0000820  67.4038 213.8845  1.00269564  8520
FALCON 9 R/B            
1 42699U 17025B   19257.49078446  .00000509  00000-0  22017-2 0  9999
2 42699  22.1195 291.1875 8387900  32.6678 358.7156  1.02883376  8777